• In Uzbekistan
  • List of Countries
  • For 7 days
  • Water Temperature
  • Satellite Maps
  • Weather Map
  • Weather Widgets
  • user-avatar
    Login

    Hourly Weather Etchmiadzin

    Today, 9 December, Friday

    Time Temperature Precipitation Wind Pressure Humidity
    00:00 -8°C° 0 mm 1 mps 691 mmHg 71%
    01:00 -9°C° 0 mm 1 mps 691 mmHg 71%
    02:00 -9°C° 0 mm 1 mps 691 mmHg 71%
    03:00 -9°C° 0 mm 1 mps 690 mmHg 70%
    04:00 -9°C° 0 mm 1 mps 690 mmHg 70%
    05:00 -8°C° 0 mm 1 mps 690 mmHg 69%
    06:00 -8°C° 0 mm 1 mps 690 mmHg 68%
    07:00 -6°C° 0 mm 1 mps 690 mmHg 65%
    08:00 -3°C° 0 mm 1 mps 690 mmHg 62%
    09:00 -1°C° 0 mm 1 mps 689 mmHg 59%
    10:00 0°C° 0 mm 1 mps 689 mmHg 57%
    11:00 -1°C° 0 mm 2 mps 688 mmHg 55%
    12:00 +1°C° 0 mm 2 mps 688 mmHg 53%
    13:00 +1°C° 0 mm 2 mps 687 mmHg 53%
    14:00 +2°C° 0 mm 2 mps 687 mmHg 54%
    15:00 +2°C° 0 mm 2 mps 686 mmHg 55%
    16:00 -1°C° 0 mm 2 mps 686 mmHg 58%
    17:00 -3°C° 0 mm 2 mps 686 mmHg 62%
    18:00 -2°C° 0 mm 1 mps 686 mmHg 65%
    19:00 -3°C° 0 mm 1 mps 686 mmHg 66%
    20:00 -3°C° 0 mm 1 mps 686 mmHg 66%
    21:00 -3°C° 0 mm 1 mps 686 mmHg 66%
    22:00 -3°C° 0 mm 1 mps 686 mmHg 66%
    23:00 -3°C° 0 mm 1 mps 686 mmHg 67%

    Tomorrow, 10 December, Saturday

    Time Temperature Precipitation Wind Pressure Humidity
    00:00 -3°C° 0 mm 1 mps 685 mmHg 67%
    01:00 -3°C° 0 mm 1 mps 685 mmHg 67%
    02:00 -3°C° 0 mm 1 mps 685 mmHg 68%
    03:00 -3°C° 0 mm 1 mps 685 mmHg 68%
    04:00 -3°C° 0 mm 1 mps 685 mmHg 69%
    05:00 -3°C° 0 mm 1 mps 684 mmHg 69%
    06:00 -4°C° 0 mm 1 mps 684 mmHg 70%
    07:00 -2°C° 0 mm 1 mps 684 mmHg 67%
    08:00 0°C° 0 mm 1 mps 684 mmHg 65%
    09:00 +1°C° 0 mm 1 mps 685 mmHg 62%
    10:00 +3°C° 0 mm 1 mps 684 mmHg 61%
    11:00 +3°C° 0 mm 2 mps 683 mmHg 59%
    12:00 +5°C° 0 mm 2 mps 683 mmHg 57%
    13:00 +5°C° 0 mm 2 mps 682 mmHg 59%
    14:00 +5°C° 0 mm 2 mps 682 mmHg 60%
    15:00 +4°C° 0 mm 2 mps 681 mmHg 62%
    16:00 +3°C° 0.1 mm 2 mps 682 mmHg 66%
    17:00 +3°C° 0.1 mm 1 mps 682 mmHg 69%
    18:00 +2°C° 0.1 mm 1 mps 682 mmHg 73%
    19:00 +2°C° 0.1 mm 1 mps 682 mmHg 74%
    20:00 +2°C° 0.1 mm 1 mps 682 mmHg 76%
    21:00 +2°C° 0.1 mm 1 mps 682 mmHg 78%
    22:00 +1°C° 0.1 mm 1 mps 683 mmHg 79%
    23:00 +1°C° 0.1 mm 1 mps 683 mmHg 81%

    Day after tomorrow, 11 December, Sunday

    Time Temperature Precipitation Wind Pressure Humidity
    00:00 0°C° 0.1 mm 1 mps 683 mmHg 82%
    01:00 0°C° 0.1 mm 1 mps 683 mmHg 82%
    02:00 -1°C° 0.1 mm 1 mps 683 mmHg 82%
    03:00 -1°C° 0.1 mm 1 mps 683 mmHg 83%
    04:00 -2°C° 0.1 mm 1 mps 683 mmHg 82%
    05:00 -2°C° 0.1 mm 1 mps 683 mmHg 82%
    06:00 -2°C° 0.1 mm 1 mps 683 mmHg 82%
    07:00 0°C° 0.1 mm 1 mps 684 mmHg 79%
    08:00 +1°C° 0.1 mm 1 mps 684 mmHg 76%
    09:00 +3°C° 0.1 mm 1 mps 685 mmHg 73%
    10:00 +4°C° 0.1 mm 1 mps 685 mmHg 71%
    11:00 +4°C° 0.1 mm 2 mps 684 mmHg 68%
    12:00 +4°C° 0.1 mm 2 mps 684 mmHg 65%
    13:00 +5°C° 0 mm 2 mps 684 mmHg 65%
    14:00 +5°C° 0 mm 2 mps 684 mmHg 65%
    15:00 +5°C° 0 mm 2 mps 684 mmHg 65%
    16:00 +3°C° 0 mm 2 mps 684 mmHg 68%
    17:00 +1°C° 0 mm 2 mps 684 mmHg 72%
    18:00 0°C° 0 mm 1 mps 684 mmHg 75%
    19:00 0°C° 0 mm 1 mps 684 mmHg 75%
    20:00 0°C° 0 mm 1 mps 684 mmHg 75%
    21:00 -1°C° 0 mm 1 mps 685 mmHg 75%
    22:00 -1°C° 0 mm 1 mps 685 mmHg 75%
    23:00 -1°C° 0 mm 1 mps 685 mmHg 75%

    12 December, Monday

    Time Temperature Precipitation Wind Pressure Humidity
    00:00 -1°C° 0 mm 1 mps 685 mmHg 76%
    01:00 -1°C° 0 mm 1 mps 685 mmHg 76%
    02:00 -1°C° 0 mm 1 mps 685 mmHg 76%
    03:00 -1°C° 0 mm 1 mps 685 mmHg 77%
    04:00 -1°C° 0 mm 1 mps 685 mmHg 77%
    05:00 -1°C° 0 mm 1 mps 685 mmHg 77%
    06:00 -1°C° 0 mm 1 mps 684 mmHg 77%
    07:00 0°C° 0 mm 1 mps 685 mmHg 74%
    08:00 +2°C° 0 mm 1 mps 685 mmHg 71%
    09:00 +4°C° 0 mm 1 mps 686 mmHg 68%
    10:00 +4°C° 0 mm 2 mps 685 mmHg 65%
    11:00 +6°C° 0 mm 2 mps 685 mmHg 63%
    12:00 +7°C° 0 mm 2 mps 684 mmHg 61%
    13:00 +7°C° 0 mm 2 mps 684 mmHg 62%
    14:00 +7°C° 0 mm 2 mps 683 mmHg 63%
    15:00 +7°C° 0 mm 2 mps 683 mmHg 64%
    16:00 +5°C° 0 mm 2 mps 683 mmHg 67%
    17:00 +3°C° 0 mm 2 mps 683 mmHg 70%
    18:00 +1°C° 0 mm 2 mps 682 mmHg 74%
    19:00 +2°C° 0 mm 1 mps 682 mmHg 74%
    20:00 +2°C° 0 mm 1 mps 682 mmHg 75%
    21:00 +1°C° 0 mm 1 mps 682 mmHg 75%
    22:00 +1°C° 0 mm 1 mps 682 mmHg 75%
    23:00 +2°C° 0 mm 1 mps 682 mmHg 76%

    13 December, Tuesday

    Time Temperature Precipitation Wind Pressure Humidity
    00:00 +2°C° 0 mm 1 mps 681 mmHg 76%
    01:00 +2°C° 0.1 mm 1 mps 681 mmHg 77%
    02:00 +2°C° 0.1 mm 1 mps 681 mmHg 77%
    03:00 +3°C° 0.1 mm 1 mps 681 mmHg 78%
    04:00 +2°C° 0.1 mm 1 mps 681 mmHg 79%
    05:00 +2°C° 0.1 mm 1 mps 681 mmHg 81%
    06:00 +1°C° 0.1 mm 1 mps 680 mmHg 82%
    07:00 +3°C° 0.1 mm 1 mps 681 mmHg 80%
    08:00 +3°C° 0.1 mm 2 mps 681 mmHg 77%
    09:00 +4°C° 0.1 mm 2 mps 681 mmHg 74%
    10:00 +5°C° 0.2 mm 2 mps 681 mmHg 72%
    11:00 +6°C° 0.2 mm 2 mps 680 mmHg 70%
    12:00 +7°C° 0.2 mm 3 mps 680 mmHg 68%
    13:00 +7°C° 0.2 mm 3 mps 679 mmHg 69%
    14:00 +7°C° 0.2 mm 3 mps 679 mmHg 69%
    15:00 +7°C° 0.2 mm 3 mps 679 mmHg 69%
    16:00 +6°C° 0.2 mm 2 mps 679 mmHg 72%
    17:00 +5°C° 0.2 mm 2 mps 679 mmHg 75%
    18:00 +4°C° 0.2 mm 2 mps 679 mmHg 78%
    19:00 +4°C° 0.3 mm 2 mps 679 mmHg 79%
    20:00 +4°C° 0.3 mm 2 mps 679 mmHg 79%
    21:00 +3°C° 0.3 mm 2 mps 679 mmHg 80%
    22:00 +3°C° 0.2 mm 2 mps 679 mmHg 81%
    23:00 +3°C° 0.2 mm 2 mps 679 mmHg 81%

    14 December, Wednesday

    Time Temperature Precipitation Wind Pressure Humidity
    00:00 +3°C° 0.2 mm 2 mps 678 mmHg 81%
    01:00 +4°C° 0.4 mm 1 mps 678 mmHg 82%
    02:00 +4°C° 0.4 mm 1 mps 678 mmHg 82%
    03:00 +4°C° 0.4 mm 1 mps 678 mmHg 82%
    04:00 +4°C° 0.5 mm 1 mps 678 mmHg 83%
    05:00 +4°C° 0.5 mm 1 mps 678 mmHg 83%
    06:00 +4°C° 0.5 mm 1 mps 678 mmHg 84%
    07:00 +4°C° 0.3 mm 1 mps 678 mmHg 83%
    08:00 +5°C° 0.3 mm 1 mps 678 mmHg 81%
    09:00 +5°C° 0.3 mm 1 mps 679 mmHg 80%
    10:00 +4°C° 0.6 mm 2 mps 678 mmHg 80%
    11:00 +5°C° 0.6 mm 2 mps 678 mmHg 79%
    12:00 +5°C° 0.6 mm 2 mps 678 mmHg 79%
    13:00 +5°C° 0.8 mm 2 mps 678 mmHg 80%
    14:00 +5°C° 0.8 mm 2 mps 678 mmHg 82%
    15:00 +5°C° 0.8 mm 1 mps 677 mmHg 83%
    16:00 +5°C° 0.7 mm 1 mps 678 mmHg 85%
    17:00 +4°C° 0.7 mm 1 mps 678 mmHg 86%
    18:00 +3°C° 0.7 mm 1 mps 678 mmHg 88%
    19:00 +3°C° 0.5 mm 1 mps 678 mmHg 88%
    20:00 +3°C° 0.5 mm 1 mps 679 mmHg 88%
    21:00 +3°C° 0.5 mm 1 mps 679 mmHg 89%
    22:00 +3°C° 0.4 mm 1 mps 679 mmHg 89%
    23:00 +2°C° 0.4 mm 1 mps 679 mmHg 89%
    Show more